ONEWEB-0080, 45426

Orbit data source: Space-Track

ONEWEB-0080, 45426 is a payload satellite owned by One Web (UK) in LEO that was launched on Sat, 21 Mar 2020 UTC via a SOYUZ-2-1B launch vehicle from the Tyuratam Missile And Space Complex (TTMTR). Payloads include a variety of satellites, spacecraft, and rockets equipped with specific instruments for various scientific and technological missions. These include communications satellites like Starlink; space stations such as the ISS; scientific satellites like the Hubble; Earth observation satellites from companies like Planet Labs, Umbra, and HawkEye 360; GPS; miniature CubeSats for education and research; and military/defense satellites.

Loading next visibility...
ONEWEB-0080 details
Identifier
45426, 2020-020C
Orbit
LEO
Last TLE update16 hours ago
Origin
Flag of UKOne Web (UK)
ManufacturerOne Web
MissionOperational Commercial Communications
Bus & MotorARROW, Unknown motor
Mass148 kg wet, ~140 kg dry
Launch date (UTC)
2020-03-21 (5 years ago)
Launch vehicle
SOYUZ-2-1B
Launch site
Tyuratam Missile And Space Complex (TTMTR)
Object type
Payload
Rocket body
Debris
Shape & HBRTrap Box + 2 Pan, 5 m
Radar Cross Section2.957 m², Large (>1 m²)

Expand to show TLE details & history

TLE from 16 hours ago
0 ONEWEB-0080
1 45426U 20020C   24355.81026384 -.00000016  00000-0 -81224-4 0  9996
2 45426  87.8900 129.3451 0001116 106.5138 253.6113 13.11419301231486
Epoch: 2024-12-20T19:26Z
Definitive object data (Epoch: 2024-12-20T19:26:46.795Z)
Latitude
Longitude107.77969°
Altitude1,220.802 km
Speed7.244 km/s
True Right ascension08h 37m 22s
True Declination0° 00' 00"
Sunlit
Object was in full shadow at TLE epoch
Visualization TLE readout
Latitude-27.42023°
Longitude106.55467°
Altitude1,228.46 km
Speed7.239 km/s
Apparent Right ascension05h 30m 29s
Apparent Declination-62° 59' 11"
Sunlit
Object is in daylight
Visualization observer readout
Local Sidereal Time10:48:56
Azimuth211.263° SW
Elevation-30.586°
Doppler factor1
Orbital elements
Apogee altitude1,215.639 km
Perigee altitude1,213.944 km
Semi-major axis7,592.929 km
Eccentricity0.0001116
Inclination87.89°
RAAN129.3451°
Arg. of periapsis106.5138°
True anomaly253.59903°
Mean anomaly253.6113°
Eccentric anomaly253.60517°
Mean motion3.28042 °/min
BSTAR-0.000081224
Orbital period109.74 mins
Loading maneuver chart data...
Loading historical data...
Loading historical data...
Loading historical data...
Loading historical data...
Loading historical data...
Loading historical data...
Loading historical data...

ONEWEB-0080 Visibility forecast

Observer location: undefined°, undefined

Span
Click to sort rows by Start time (UTC) header in descending order
Start Az.
Max El. time (UTC)
Max El. Az.
Max El.
End time (UTC)
End Az.
10 mins2024-12-21 19:52:14.799Z30.72° NE2024-12-21 19:57:14.799Z77.137° E20.56°2024-12-21 20:02:14.799Z122.261° SE
12 mins2024-12-21 21:42:14.799Z350.25° N2024-12-21 21:47:14.799Z288.463° WNW42.138°2024-12-21 21:54:14.799Z195.079° SSW
9 mins2024-12-22 08:13:14.799Z114.076° SE2024-12-22 08:17:14.799Z71.632° E22.674°2024-12-22 08:22:14.799Z26.915° NE
13 mins2024-12-22 10:00:14.799Z198.171° SSW2024-12-22 10:06:14.799Z275.703° WNW40.513°2024-12-22 10:13:14.799Z352.68° N
|